Lid_Strength_Index
8 11 12 10 10 10 10 12 12 10 10 11 11 11 10 10 11 11 11 12 12 12 12 11 10 9 9 8 7 7 7 7 7 8 9 10 11 11 11 11 11 11 10 9
11 12 9 8 9 10 10 12 12 11 11 12 12 12 10 11 11 11 11 12 12 13 13 12 11 9 9 9 8 7 6 6 6 8 9 10 12 12 12 12 12 12 12 12
11 10 9 10 11 11 11 12 13 12 12 13 14 15 13 11 11 11 10 11 12 13 13 13 12 10 10 9 9 8 8 8 9 10 11 11 12 13 14 14 14 13 12 12
11 9 10 10 11 10 13 10 11 12 14 17 14 18 13 12 13 13 13 13 13 13 13 13 13 12 11 11 10 9 9 10 10 10 11 12 13 15 15 14 14 14 13 13
11 11 11 12 11 10 12 11 13 13 15 16 16 17 15 13 14 14 13 14 14 13 13 14 14 13 13 12 13 12 12 11 11 12 12 13 14 14 14 14 14 14 14 14
12 11 12 12 12 11 11 13 14 15 15 19 15 15 16 13 13 13 13 14 14 14 15 15 14 14 14 14 13 14 14 13 13 13 13 14 14 14 14 14 15 15 15 15
12 12 12 11 13 12 12 14 18 20 20 20 15 16 14 13 14 12 13 14 14 14 15 16 16 15 15 15 15 14 14 14 13 13 14 14 14 14 14 14 15 15 16 16
16 16 13 12 12 13 14 14 18 22 21 19 18 19 16 14 14 13 12 13 14 14 15 16 16 16 15 15 15 16 15 15 15 15 14 14 14 14 15 15 15 16 16 16
14 14 12 12 11 11 14 16 12 16 21 21 17 16 14 14 15 14 14 14 14 15 15 15 15 15 15 16 16 16 16 15 15 15 15 15 15 15 15 16 16 16 16 15
11 16 13 14 12 12 13 12 17 16 22 23 19 18 16 17 16 15 14 14 14 14 15 15 15 15 16 16 16 16 15 16 15 15 15 15 15 15 16 16 16 16 16 16
11 13 16 14 15 14 15 16 14 14 16 20 21 17 13 13 14 15 14 13 13 14 14 15 15 15 15 16 16 16 16 16 16 15 15 15 16 15 15 16 16 16 16 16
11 12 17 16 13 13 13 13 13 16 18 16 17 16 14 14 13 13 13 13 13 13 14 14 15 15 16 16 16 16 16 16 16 15 16 16 15 16 16 16 16 17 17 17
11 14 18 17 16 14 15 13 13 12 15 17 18 17 14 14 13 13 13 13 13 13 14 14 15 15 16 16 16 16 16 16 15 15 16 16 16 16 16 17 17 17 17 18
9 13 15 17 15 15 18 16 14 14 16 17 16 15 16 15 14 14 13 13 13 13 14 14 15 15 16 16 16 16 16 15 15 15 16 17 16 16 16 16 17 17 17 18
10 15 14 13 13 13 16 16 15 15 15 16 15 14 12 14 14 13 12 13 13 13 14 14 15 15 16 16 16 16 16 15 15 15 16 16 16 16 16 16 17 17 18 18
11 15 14 15 14 14 14 14 15 15 14 14 14 14 11 10 12 13 13 13 13 13 13 13 14 14 15 15 16 16 16 16 15 16 16 16 15 15 16 16 17 17 18 18
13 14 15 17 15 14 17 14 13 13 13 13 16 13 11 13 13 14 13 13 13 13 13 13 13 13 14 15 15 16 16 16 16 16 16 15 15 16 16 17 18 18 18 18
15 15 15 17 15 21 15 13 12 12 12 11 12 12 14 12 12 12 11 12 13 12 12 12 12 12 13 14 15 15 16 16 16 16 15 15 16 16 16 17 18 19 19 19
13 15 15 18 18 16 15 18 16 15 14 11 12 11 15 15 13 13 12 11 11 12 12 12 12 12 13 14 14 15 15 16 15 15 15 16 16 16 17 18 18 19 19 19
16 14 15 17 19 21 20 19 15 13 17 16 12 13 16 14 14 14 14 13 12 12 12 13 13 13 13 14 14 15 15 16 16 15 15 15 16 16 17 18 19 20 19 18
19 18 17 16 17 16 18 19 16 18 18 20 16 16 15 13 13 14 14 13 13 13 14 14 14 14 14 14 14 15 16 16 15 16 16 16 16 16 17 18 19 19 19 17
17 18 18 16 17 19 18 18 17 17 17 17 16 17 16 16 16 15 14 15 15 15 15 15 15 15 16 15 15 15 15 15 16 16 16 17 18 17 18 18 19 19 19 20
17 15 15 15 16 17 17 18 16 15 15 16 15 15 15 17 17 16 16 16 17 16 16 16 15 16 16 15 15 15 15 16 17 17 17 19 19 18 18 19 19 19 20 20
17 16 15 16 16 16 16 13 14 16 16 16 16 15 16 17 17 17 17 17 17 17 16 17 16 16 17 17 16 18 17 17 17 19 20 20 19 19 19 18 18 19 19 20
16 15 17 18 17 16 15 15 13 15 15 16 16 15 16 16 17 16 17 17 16 16 17 17 17 17 17 18 19 19 18 18 18 19 20 20 19 19 19 19 18 18 19 17
16 15 16 17 15 15 14 13 12 14 15 15 15 16 15 15 16 16 16 16 16 17 17 17 18 18 19 18 19 19 19 19 19 20 19 19 19 20 19 19 21 13 13 12